Regional Weather Roundup
Issued by NWS

Home | Current Version | Previous Version | Graphics & Text | Print | Product List | Glossary On
Versions: 1 2 3 4 5 6 7 8 9 10 11 12 13 14 15 16 17 18 19 20 21 22 23 24 25 26 27
000
ASUS45 KSLC 271710
RWRUT

UTAH REGIONAL WEATHER ROUNDUP
NATIONAL WEATHER SERVICE SALT LAKE CITY UT
1100 AM MDT TUE SEP 27 2016

UTZ001>011-023>025-271800-

NORTHERN UTAH

CITY           SKY/WX    TMP DP  RH WIND       PRES   REMARKS
BRIGHAM CITY     N/A     62  49  62 CALM      30.25S
HILL AFB       SUNNY     64  45  51 E8        30.25S
LOGAN          SUNNY     59  48  67 CALM      30.25F
OGDEN          SUNNY     65  45  48 N6        30.24S
PROVO AIRPORT  SUNNY     63  46  55 VRB5      30.26F
SALT LAKE CITY MOSUNNY   68  47  46 CALM      30.23S
VERNAL         SUNNY     58  46  64 CALM      30.31F
WENDOVER       SUNNY     63  43  48 E3        30.24F
HEBER CITY     SUNNY     55  43  62 CALM      30.29F
WEST JORDAN    SUNNY     66  46  47 S3        30.25S

$$

UTZ012>022-026-027-271800-

SOUTHERN/CENTRAL UTAH

CITY           SKY/WX    TMP DP  RH WIND       PRES   REMARKS
BLANDING       SUNNY     66  32  28 S6        30.41S
BRYCE CANYON   SUNNY     61  33  35 CALM      30.40S
CEDAR CITY     SUNNY     65  34  31 E3        30.27S
DELTA          SUNNY     64  41  42 E5        30.25F
MILFORD        SUNNY     65  41  41 CALM      30.25S
MOAB/CYNLANDS  NOT AVBL
PRICE          SUNNY     63  40  42 SE3       30.31S
ST GEORGE      SUNNY     70  39  32 CALM      30.17F

$$

REGIONAL REPORTS     COLORADO/ARIZONA

CITY           SKY/WX    TMP DP  RH WIND       PRES   REMARKS
CRAIG, CO      SUNNY     58  36  43 CALM      30.35F
GRAND JUNCTION SUNNY     66  38  35 SE8       30.27F
RIFLE          SUNNY     60  39  45 CALM      30.31F
MONTROSE       SUNNY     63  38  39 CALM      30.33F
CORTEZ         SUNNY     67  35  30 SW9       30.33F
PAGE, AZ       SUNNY     68  39  34 VRB5      30.24S
GRAND CANYON   CLOUDY    61  35  37 SE8       30.33S
KINGMAN        CLOUDY    72  39  30 SE16      30.15R
FLAGSTAFF      CLOUDY    50  44  80 E5        30.35R

$$

REGIONAL REPORTS    NEVADA/IDAHO/WYOMING

CITY           SKY/WX    TMP DP  RH WIND       PRES   REMARKS
LAS VEGAS, NV  MOSUNNY   80  31  16 VRB3      30.07R
ELY            SUNNY     63  36  36 S6        30.31F
ELKO           SUNNY     62  39  42 CALM      30.24F
POCATELLO, ID  SUNNY     62  46  55 N3        30.25F
BURLEY         SUNNY     61  48  62 NE10      30.19F
EVANSTON, WY   SUNNY     60  39  45 CALM      30.37S
ROCK SPRINGS   SUNNY     57  45  64 CALM      30.36F

$$




USA.gov is the U.S. government's official web portal to all federal, state and local government web resources and services.